{"data":{"norad_id":52262,"intl_designator":"2022-041B","name":"STARLINK-3761","alt_names":[],"object_type":"PAYLOAD","status":"ACTIVE","operator":null,"country":"US","launch_date":"2022-04-21","launch_site_code":"AFETR","launch_vehicle":null,"mission":null,"orbit_class":"UNKNOWN","rcs_meters":null,"size_class":null,"mass_kg":null,"dimensions":null,"purposes":["comms"],"wikipedia_slug":null,"has_3d_model":false,"image_url":null,"decayed_at":null,"tle_current":{"epoch":"2026-05-25T05:15:39.389760Z","epoch_age_seconds":52721,"freshness":"FRESH","line1":"1 52262U 22041B   26145.21920590  .00001318  00000+0  10085-3 0  9991","line2":"2 52262  53.2141 125.5196 0001696  58.0534 302.0623 15.08853843225911","mean_motion":15.08853843,"eccentricity":0.0001696,"inclination_deg":53.2141,"raan_deg":125.5196,"arg_perigee_deg":58.0534,"mean_anomaly_deg":302.0623,"bstar":0.00010085,"rev_number":22591,"period_min":95.436679084629,"perigee_km":538.52781143676,"apogee_km":540.8743421124,"semimajor_km":6917.8380767746,"source":"CELESTRAK","updated_at":"2026-05-25T13:38:17.079850Z"}}}